Location: *
(44.3683°N, 6.6958°E)
Time: 06:38:10
(UTC+00:00)

Cosmos 2082 Rocket - Pass Details

Date: 14 October 2019
Orbit: 832 x 855 km, 71.0° (Epoch: 11 November)

Event Time Altitude Azimuth Distance (km) Brightness Sun altitude
Rises 17:55:25 0° 343° (NNW) 3,435 5.6 -12.2°
Reaches altitude 10° 17:58:43 10° 2° (N) 2,494 4.6 -12.8°
Maximum altitude 18:02:36 18° 45° (NE) 1,962 3.7 -13.5°
Enters shadow 18:04:15 16° 66° (ENE) 2,066 3.7 -13.8°
